Total_Precipitation_Accumulation
2.14 2.82 3.51 4.08 4.74 5.50 6.08 5.93 5.30 4.79 4.18 3.62 3.06 2.91 2.68 2.41 2.15 1.92 1.68 1.65 1.58 1.38 1.35 1.26 1.36 1.15 1.16 1.19 1.19 1.39 1.49 1.41 1.45 1.78 1.88 1.55 1.29 1.34 1.38 1.39 1.60 1.65 1.59
2.09 2.88 3.50 3.70 3.71 3.99 4.25 3.75 3.54 3.51 3.09 2.76 2.67 2.51 2.31 2.08 1.87 1.73 1.65 1.37 1.33 1.26 1.19 1.33 1.27 1.21 1.26 1.19 1.21 1.37 1.47 1.44 1.47 1.65 1.85 1.66 1.68 1.54 1.19 1.39 1.48 1.55 1.71
2.21 2.73 2.90 2.91 2.80 2.79 2.77 2.55 2.48 2.77 2.68 2.62 2.53 2.43 2.38 2.29 2.03 1.69 1.61 1.32 1.16 1.13 1.21 1.21 1.27 1.31 1.11 1.23 1.33 1.30 1.36 1.40 1.35 1.37 1.65 1.70 1.72 1.53 1.23 1.24 1.29 1.44 1.68
2.17 2.17 1.78 1.66 1.81 1.90 1.99 2.24 2.31 2.42 2.33 2.37 2.16 1.95 1.81 1.69 1.59 1.51 1.52 1.49 1.29 1.16 1.09 1.13 1.31 1.34 1.17 1.34 1.07 1.16 1.36 1.41 1.25 1.25 1.24 1.27 1.44 1.57 1.54 1.36 1.26 1.31 1.40
1.23 1.03 0.89 0.97 1.21 1.46 1.70 2.07 2.15 2.18 2.07 2.02 2.02 2.05 1.93 1.89 1.75 1.67 1.77 1.74 1.69 1.47 1.18 1.13 1.30 1.39 1.33 1.36 1.26 1.48 1.33 1.23 1.17 1.19 1.27 1.29 1.26 1.19 1.43 1.51 1.43 1.35 1.16
0.60 0.62 0.70 0.89 1.13 1.30 1.41 1.62 1.79 1.98 2.02 2.03 2.09 2.04 2.00 2.04 1.86 1.69 1.59 1.57 1.60 1.54 1.42 1.33 1.47 1.50 1.43 1.42 1.36 1.43 1.38 1.35 1.33 1.20 1.16 1.38 1.36 1.24 1.39 1.32 1.29 1.25 0.98
0.44 0.60 0.66 0.86 0.98 1.09 1.11 1.21 1.34 1.55 1.68 1.77 1.89 1.94 1.97 2.00 1.81 1.68 1.54 1.50 1.41 1.37 1.47 1.51 1.61 1.51 1.48 1.42 1.42 1.44 1.47 1.51 1.52 1.35 1.16 1.16 1.25 1.26 1.26 1.25 1.13 1.12 1.02
0.30 0.35 0.39 0.48 0.62 0.79 0.98 1.13 1.18 1.21 1.24 1.30 1.49 1.68 1.72 1.73 1.66 1.71 1.50 1.41 1.33 1.34 1.47 1.52 1.43 1.40 1.39 1.32 1.43 1.34 1.30 1.34 1.41 1.33 1.51 1.43 1.19 1.30 1.34 1.37 1.49 1.45 1.37
0.30 0.26 0.25 0.32 0.41 0.47 0.62 0.84 0.93 0.95 0.97 1.05 1.20 1.30 1.36 1.47 1.59 1.56 1.39 1.24 1.28 1.31 1.34 1.28 1.27 1.29 1.30 1.39 1.50 1.42 1.35 1.39 1.31 1.33 1.64 1.56 1.28 1.27 1.33 1.40 1.59 1.83 1.72
0.25 0.27 0.28 0.29 0.32 0.33 0.45 0.62 0.77 0.82 0.86 0.93 1.01 0.99 1.13 1.24 1.38 1.41 1.35 1.23 1.19 1.27 1.31 1.26 1.26 1.26 1.18 1.24 1.41 1.37 1.41 1.48 1.46 1.46 1.51 1.53 1.46 1.44 1.48 1.53 1.63 1.84 1.87
0.26 0.31 0.27 0.31 0.28 0.28 0.35 0.46 0.64 0.74 0.73 0.79 0.87 0.96 1.07 1.23 1.30 1.29 1.33 1.29 1.26 1.28 1.31 1.32 1.34 1.31 1.26 1.28 1.36 1.31 1.40 1.48 1.58 1.58 1.53 1.53 1.67 1.70 1.59 1.62 1.66 1.81 2.01
0.31 0.30 0.27 0.31 0.25 0.27 0.32 0.40 0.48 0.57 0.62 0.71 0.80 0.91 1.00 1.10 1.21 1.19 1.25 1.34 1.32 1.30 1.28 1.31 1.39 1.31 1.30 1.33 1.26 1.27 1.35 1.46 1.53 1.63 1.77 1.78 1.80 1.76 1.68 1.74 1.77 1.90 2.13
0.36 0.31 0.35 0.35 0.29 0.29 0.34 0.40 0.49 0.59 0.68 0.76 0.87 0.90 0.88 0.96 1.10 1.17 1.20 1.27 1.34 1.37 1.34 1.29 1.31 1.35 1.38 1.38 1.26 1.23 1.26 1.25 1.25 1.39 1.66 1.91 2.15 2.05 1.89 1.83 1.80 1.87 1.98
0.30 0.32 0.33 0.35 0.40 0.41 0.44 0.50 0.61 0.68 0.74 0.70 0.76 0.84 0.88 1.02 1.16 1.21 1.22 1.26 1.29 1.34 1.40 1.41 1.41 1.39 1.38 1.36 1.35 1.37 1.33 1.27 1.21 1.25 1.36 1.51 1.73 1.91 2.02 1.87 1.73 1.76 1.89
0.32 0.34 0.37 0.39 0.42 0.48 0.50 0.55 0.67 0.68 0.71 0.84 0.93 1.01 1.04 1.12 1.25 1.34 1.31 1.36 1.38 1.39 1.54 1.61 1.58 1.53 1.49 1.38 1.44 1.53 1.42 1.43 1.36 1.33 1.31 1.26 1.35 1.49 1.65 1.67 1.80 1.84 1.85
0.38 0.43 0.46 0.46 0.47 0.50 0.57 0.64 0.71 0.76 0.91 1.21 1.31 1.31 1.35 1.40 1.43 1.45 1.43 1.50 1.58 1.75 1.82 1.77 1.73 1.70 1.52 1.56 1.53 1.50 1.52 1.59 1.58 1.54 1.49 1.37 1.27 1.29 1.37 1.43 1.53 1.70 1.77
0.45 0.50 0.61 0.65 0.60 0.60 0.65 0.74 0.79 0.84 1.00 1.22 1.36 1.43 1.45 1.47 1.55 1.56 1.59 1.64 1.72 1.80 1.90 1.98 1.96 1.90 1.93 1.81 1.52 1.47 1.50 1.60 1.65 1.73 1.76 1.48 1.26 1.33 1.29 1.37 1.38 1.39 1.49
0.56 0.64 0.64 0.72 0.75 0.78 0.82 0.93 1.06 1.17 1.24 1.34 1.45 1.58 1.61 1.65 1.69 1.68 1.63 1.64 1.70 1.70 1.68 1.68 1.66 1.69 1.68 1.61 1.38 1.30 1.24 1.38 1.47 1.48 1.48 1.46 1.33 1.23 1.24 1.26 1.21 1.16 1.17
0.70 0.78 0.85 0.85 0.90 1.02 1.09 1.12 1.28 1.42 1.49 1.53 1.70 1.83 1.91 1.97 1.90 1.81 1.80 1.76 1.73 1.59 1.51 1.47 1.46 1.47 1.51 1.46 1.28 1.20 1.13 1.20 1.24 1.23 1.24 1.28 1.20 1.18 1.05 1.01 1.04 1.02 0.99
0.73 0.79 0.93 1.06 1.04 1.14 1.25 1.30 1.33 1.37 1.45 1.50 1.62 1.79 1.89 2.04 2.12 2.07 2.03 1.93 1.85 1.77 1.69 1.63 1.60 1.58 1.63 1.66 1.41 1.28 1.20 1.28 1.30 1.36 1.36 1.31 1.16 1.10 0.93 0.86 0.92 0.88 0.81
0.70 0.74 0.82 0.96 1.02 1.09 1.18 1.30 1.35 1.32 1.36 1.36 1.38 1.54 1.74 1.93 2.05 2.13 2.06 2.03 1.96 1.88 1.72 1.58 1.54 1.56 1.64 1.71 1.52 1.37 1.20 1.26 1.37 1.45 1.51 1.45 1.29 0.99 0.81 0.72 0.72 0.70 0.71
0.68 0.73 0.78 0.84 0.95 1.11 1.30 1.45 1.46 1.44 1.44 1.48 1.59 1.68 1.78 1.78 1.77 1.85 1.88 1.92 1.90 1.82 1.68 1.48 1.32 1.29 1.30 1.31 1.31 1.14 1.03 1.07 1.19 1.34 1.46 1.46 1.32 1.05 0.85 0.71 0.62 0.58 0.55
0.75 0.73 0.79 0.87 1.00 1.20 1.43 1.65 1.68 1.69 1.70 1.71 1.74 1.76 1.81 1.82 1.83 1.77 1.71 1.67 1.59 1.47 1.36 1.22 1.20 1.19 1.16 1.11 1.01 0.84 0.75 0.79 0.90 1.06 1.32 1.41 1.29 1.13 0.95 0.84 0.76 0.65 0.55
0.81 0.79 0.80 0.85 0.97 1.07 1.21 1.43 1.55 1.61 1.70 1.64 1.56 1.51 1.49 1.51 1.56 1.59 1.54 1.51 1.47 1.42 1.33 1.22 1.22 1.19 1.16 1.06 0.97 0.89 0.80 0.81 0.88 0.92 1.08 1.21 1.22 1.10 1.01 0.91 0.78 0.65 0.61
0.90 0.88 0.88 0.91 0.96 1.01 1.05 1.14 1.29 1.41 1.57 1.62 1.55 1.52 1.51 1.48 1.51 1.56 1.63 1.52 1.45 1.41 1.32 1.23 1.28 1.27 1.19 1.16 1.11 1.05 0.99 0.96 0.99 0.96 1.01 1.12 1.22 1.22 1.17 1.14 1.03 0.91 0.83
0.90 0.96 1.00 1.03 1.01 1.04 1.12 1.21 1.32 1.49 1.66 1.66 1.55 1.54 1.58 1.61 1.61 1.60 1.63 1.67 1.51 1.46 1.34 1.27 1.25 1.26 1.18 1.08 0.94 0.90 0.87 0.79 0.74 0.70 0.81 0.99 1.14 1.27 1.31 1.34 1.28 1.16 1.05